AirNav   Pilot Hours Calculator
 
 1470 users online  

PS74 Hahn Heliport
Nazareth, Pennsylvania, USA

GOING TO NAZARETH?


FAA INFORMATION EFFECTIVE 31 DECEMBER 2020

Location

FAA Identifier: PS74
Lat/Long: 40-48-10.3440N 075-20-20.6500W
40-48.172400N 075-20.344167W
40.8028733,-75.3390694
(estimated)
Elevation: 660 ft. / 201 m (estimated)
Variation: 12W (1986)
From city: 4 miles S of NAZARETH, PA
Time zone: UTC -5 (UTC -4 during Daylight Saving Time)
Zip code: 18091

Heliport Operations

Heliport use: Private use. Permission required prior to landing
Activation date: 04/1986
Control tower: no
ARTCC: NEW YORK CENTER
FSS: WILLIAMSPORT FLIGHT SERVICE STATION
Attendance: UNATNDD
Wind indicator: yes
Segmented circle: no

Heliport Communications

WX ASOS at ABE (10 nm SW): 126.975 (610-264-1765)
WX AWOS-3 at XLL (16 nm SW): 127.875 (610-231-3111)
WX AWOS-3PT at 22N (19 nm W): 119.350 (570-386-3423)

Nearby radio navigation aids

VOR radial/distance  VOR name  Freq  Var
FJCr059/7.0ALLENTOWN VORTAC117.5010W
ETXr059/20.6EAST TEXAS VOR/DME110.2009W
BWZr282/23.5BROADWAY VOR/DME114.2011W
STWr252/24.3STILLWATER VOR/DME109.6011W
SBJr306/30.2SOLBERG VOR/DME112.9010W
LVZr161/32.3WILKES-BARRE VORTAC111.6010W
PTWr025/36.3POTTSTOWN VORTAC116.5009W
ARDr339/38.4YARDLEY VOR/DME108.2010W
SAXr257/39.6SPARTA VORTAC115.7011W

Heliport Services

Runway Information

Helipad H1

Dimensions: 60 x 60 ft. / 18 x 18 m
Surface: turf
Traffic pattern: leftleft

Heliport Ownership and Management from official FAA records

Ownership: Privately-owned
Owner: JAMES M. HAHN
1219 BUSHKILL CENTER ROAD
NAZARETH, PA 18064
Phone 610-759-2090
Manager: JAMES M. HAHN
1219 BUSHKILL CENTER ROAD
NAZARETH, PA 18064
Phone 610-759-2090

Additional Remarks

FOR CD CTC ALLENTOWN APCH AT 800-728-6322.

Instrument Procedures

There are no published instrument procedures at PS74.

Some nearby airports with instrument procedures:

N43 - Braden Airpark (6 nm SE)
KABE - Lehigh Valley International Airport (10 nm SW)
KXLL - Allentown Queen City Municipal Airport (16 nm SW)
N53 - Stroudsburg-Pocono Airport (16 nm NE)
1N7 - Blairstown Airport (18 nm NE)
22N - Jake Arner Memorial Airport (19 nm W)
N85 - Alexandria Airport (19 nm SE)
 
Loc | Ops | Rwys | IFR | FBO | Links
Com | Nav | Svcs | Stats | Notes
Area around PS74 (Hahn Heliport)
 
Road maps at: MapQuest Bing Google
 
Aerial photo
No photo
 
Sectional chart

 
Airport distance calculator
Flying to Hahn Heliport? Find the distance to fly.

From to PS74

Sunrise and sunset
Times for 15-Jan-2021
 Local
(UTC-5)
 Zulu
(UTC)
Morning civil twilight06:5411:54
Sunrise07:2512:25
Sunset16:5721:57
Evening civil twilight17:2722:27

Current date and time
Zulu (UTC)  15-Jan-2021 16:49:17
Local (UTC-5)  15-Jan-2021 11:49:17
 
METAR
KABE 
10nm SW 
151551Z 10011KT 4SM BR OVC007 03/01 A2995 RMK AO2 SLP147 T00280006
KXLL 
16nm SW 
151635Z AUTO 08009KT 4SM HZ OVC008 05/02 A2993 RMK AO2
K22N 
19nm W 
151635Z AUTO 11005KT 4SM BR OVC010 03/02 A2994 RMK AO2
KMPO 
20nm N 
151553Z AUTO 10011G17KT 1/4SM FZFG VV001 M01/M01 A2989 RMK AO2 SLP140 I1001 T10111011
TAF
KABE 
10nm SW 
151554Z 1516/1612 10010KT P6SM BKN007 FM151700 09010KT P6SM OVC015 FM160100 09010KT 5SM -RADZ BR OVC008 FM160400 10010KT 1 1/2SM -RA BR OVC004
NOTAMs
Click for the latest NOTAMs
NOTAMs are issued by the DoD/FAA and will open in a separate window not controlled by AirNav.

 

 
 

Would you like to see your business listed on this page?

 If your business provides an interesting product or service to pilots, flight crews, aircraft, or users of the Hahn Heliport, you should consider listing it here.  To start the listing process, click on the button below
 
Add a business
 

Other Pages about Hahn Heliport

Update a link
 
Copyright © AirNav, LLC. All rights reserved. Privacy Policy  Contact